Time,TemperatureF,DewpointF,PressureIn,WindDirection,WindDirectionDegrees,WindSpeedMPH,WindSpeedGustMPH,Humidity,HourlyPrecipIn,Conditions,Clouds,dailyrainin,SoftwareType,DateUTC
2013-03-30 00:02:00,43.0,39.0,30.18,South,169,2.0,-999.0,86,-99.99,,,-99.99,,2013-03-30 05:02:00,
2013-03-30 00:12:00,43.0,39.0,30.18,South,169,2.0,-999.0,86,-99.99,,,-99.99,,2013-03-30 05:12:00,
2013-03-30 00:22:00,42.0,38.0,30.17,South,169,0.0,-999.0,87,-99.99,,,-99.99,,2013-03-30 05:22:00,
2013-03-30 00:32:00,42.0,38.0,30.17,South,169,0.0,-999.0,87,-99.99,,,-99.99,,2013-03-30 05:32:00,
2013-03-30 00:42:00,42.0,38.0,30.17,South,169,0.0,-999.0,87,-99.99,,,-99.99,,2013-03-30 05:42:00,
2013-03-30 00:52:00,41.0,38.0,30.17,SE,138,0.0,-999.0,88,-99.99,,,-99.99,,2013-03-30 05:52:00,
2013-03-30 01:02:00,41.0,38.0,30.18,SE,139,0.0,-999.0,88,-99.99,,,-99.99,,2013-03-30 06:02:00,
2013-03-30 01:11:00,41.0,38.0,30.18,SE,139,0.0,-999.0,88,-99.99,,,-99.99,,2013-03-30 06:11:00,
2013-03-30 01:22:00,42.0,39.0,30.18,SE,138,0.0,-999.0,89,-99.99,,,-99.99,,2013-03-30 06:22:00,
2013-03-30 01:32:00,42.0,39.0,30.18,SE,138,0.0,-999.0,90,-99.99,,,-99.99,,2013-03-30 06:32:00,
2013-03-30 01:42:00,42.0,39.0,30.18,SE,138,0.0,-999.0,90,-99.99,,,-99.99,,2013-03-30 06:42:00,
2013-03-30 01:52:00,42.0,39.0,30.19,SE,139,0.0,-999.0,90,-99.99,,,-99.99,,2013-03-30 06:52:00,
2013-03-30 02:02:00,42.0,39.0,30.18,SE,138,0.0,-999.0,90,-99.99,,,-99.99,,2013-03-30 07:02:00,
2013-03-30 02:12:00,42.0,39.0,30.18,SE,138,0.0,-999.0,90,-99.99,,,-99.99,,2013-03-30 07:12:00,
2013-03-30 02:22:00,42.0,39.0,30.18,SE,139,0.0,-999.0,90,-99.99,,,-99.99,,2013-03-30 07:22:00,
2013-03-30 02:32:00,42.0,39.0,30.17,SE,138,0.0,-999.0,90,-99.99,,,-99.99,,2013-03-30 07:32:00,
2013-03-30 02:42:00,42.0,39.0,30.17,SE,138,0.0,-999.0,90,-99.99,,,-99.99,,2013-03-30 07:42:00,
2013-03-30 02:52:00,41.0,39.0,30.16,East,100,0.0,-999.0,91,-99.99,,,-99.99,,2013-03-30 07:52:00,
2013-03-30 03:02:00,41.0,39.0,30.16,ENE,65,0.0,-999.0,91,-99.99,,,-99.99,,2013-03-30 08:02:00,
2013-03-30 03:12:00,41.0,39.0,30.16,ENE,65,0.0,-999.0,91,-99.99,,,-99.99,,2013-03-30 08:12:00,
2013-03-30 03:21:00,41.0,39.0,30.15,ENE,64,0.0,-999.0,92,-99.99,,,-99.99,,2013-03-30 08:21:00,
2013-03-30 03:32:00,41.0,39.0,30.15,ENE,64,0.0,-999.0,92,-99.99,,,-99.99,,2013-03-30 08:32:00,
2013-03-30 03:42:00,41.0,39.0,30.15,ENE,64,0.0,-999.0,92,-99.99,,,-99.99,,2013-03-30 08:42:00,
2013-03-30 03:53:00,41.0,39.0,30.14,ENE,66,0.0,-999.0,92,-99.99,,,-99.99,,2013-03-30 08:53:00,
2013-03-30 04:02:00,41.0,39.0,30.14,ENE,65,0.0,-999.0,92,-99.99,,,-99.99,,2013-03-30 09:02:00,
2013-03-30 04:12:00,41.0,39.0,30.14,ENE,57,0.0,-999.0,93,-99.99,,,-99.99,,2013-03-30 09:12:00,
2013-03-30 04:22:00,41.0,39.0,30.14,ENE,57,0.0,-999.0,93,-99.99,,,-99.99,,2013-03-30 09:22:00,
2013-03-30 04:33:00,41.0,39.0,30.14,ENE,58,1.0,-999.0,93,-99.99,,,-99.99,,2013-03-30 09:33:00,
2013-03-30 04:42:00,41.0,39.0,30.14,ENE,58,1.0,-999.0,93,-99.99,,,-99.99,,2013-03-30 09:42:00,
2013-03-30 04:53:00,41.0,39.0,30.14,ENE,59,0.0,-999.0,94,-99.99,,,-99.99,,2013-03-30 09:53:00,
2013-03-30 05:02:00,41.0,39.0,30.14,ENE,59,0.0,-999.0,94,-99.99,,,-99.99,,2013-03-30 10:02:00,
2013-03-30 05:13:00,41.0,39.0,30.14,ENE,59,0.0,-999.0,94,-99.99,,,-99.99,,2013-03-30 10:13:00,
2013-03-30 05:23:00,41.0,39.0,30.14,ENE,59,0.0,-999.0,94,-99.99,,,-99.99,,2013-03-30 10:23:00,
2013-03-30 05:32:00,41.0,40.0,30.14,ENE,59,0.0,-999.0,95,-99.99,,,-99.99,,2013-03-30 10:32:00,
2013-03-30 05:42:00,41.0,40.0,30.14,ENE,59,0.0,-999.0,95,-99.99,,,-99.99,,2013-03-30 10:42:00,
2013-03-30 05:52:00,41.0,40.0,30.13,ENE,63,0.0,-999.0,95,-99.99,,,-99.99,,2013-03-30 10:52:00,
2013-03-30 06:03:00,41.0,40.0,30.12,ENE,63,1.0,-999.0,95,-99.99,,,-99.99,,2013-03-30 11:03:00,
2013-03-30 06:12:00,41.0,40.0,30.12,ENE,63,1.0,-999.0,95,-99.99,,,-99.99,,2013-03-30 11:12:00,
2013-03-30 06:22:00,40.0,39.0,30.13,NE,46,2.0,-999.0,95,-99.99,,,-99.99,,2013-03-30 11:22:00,
2013-03-30 06:33:00,40.0,39.0,30.14,NE,45,1.0,-999.0,95,-99.99,,,-99.99,,2013-03-30 11:33:00,
2013-03-30 06:42:00,40.0,39.0,30.14,NE,45,1.0,-999.0,95,-99.99,,,-99.99,,2013-03-30 11:42:00,
2013-03-30 06:53:00,40.0,39.0,30.13,NE,45,0.0,-999.0,95,-99.99,,,-99.99,,2013-03-30 11:53:00,
2013-03-30 07:02:00,40.0,39.0,30.13,NE,45,0.0,-999.0,95,-99.99,,,-99.99,,2013-03-30 12:02:00,
2013-03-30 07:12:00,40.0,39.0,30.13,NE,45,0.0,-999.0,95,-99.99,,,-99.99,,2013-03-30 12:12:00,
2013-03-30 07:22:00,41.0,40.0,30.13,NE,46,0.0,-999.0,96,-99.99,,,-99.99,,2013-03-30 12:22:00,
2013-03-30 07:32:00,41.0,40.0,30.14,NE,50,0.0,-999.0,96,-99.99,,,-99.99,,2013-03-30 12:32:00,
2013-03-30 07:42:00,41.0,40.0,30.14,NE,50,0.0,-999.0,96,-99.99,,,-99.99,,2013-03-30 12:42:00,
2013-03-30 07:53:00,41.0,40.0,30.14,NE,45,1.0,-999.0,96,-99.99,,,-99.99,,2013-03-30 12:53:00,
2013-03-30 08:02:00,41.0,40.0,30.14,NE,44,0.0,-999.0,96,-99.99,,,-99.99,,2013-03-30 13:02:00,
2013-03-30 08:12:00,41.0,40.0,30.14,NE,44,0.0,-999.0,96,-99.99,,,-99.99,,2013-03-30 13:12:00,
2013-03-30 08:22:00,42.0,41.0,30.14,NE,46,0.0,-999.0,96,-99.99,,,-99.99,,2013-03-30 13:22:00,
2013-03-30 08:32:00,42.0,41.0,30.14,ENE,71,0.0,-999.0,97,-99.99,,,-99.99,,2013-03-30 13:32:00,
2013-03-30 08:42:00,42.0,41.0,30.14,ENE,71,0.0,-999.0,97,-99.99,,,-99.99,,2013-03-30 13:42:00,
2013-03-30 08:52:00,43.0,42.0,30.13,East,94,3.0,-999.0,97,-99.99,,,-99.99,,2013-03-30 13:52:00,
2013-03-30 09:02:00,42.0,41.0,30.13,East,94,3.0,-999.0,97,-99.99,,,-99.99,,2013-03-30 14:02:00,
2013-03-30 09:11:00,42.0,41.0,30.13,East,94,3.0,-999.0,97,-99.99,,,-99.99,,2013-03-30 14:11:00,
2013-03-30 09:22:00,43.0,42.0,30.13,East,90,4.0,-999.0,97,-99.99,,,-99.99,,2013-03-30 14:22:00,
2013-03-30 09:32:00,44.0,43.0,30.14,ENE,76,0.0,-999.0,97,-99.99,,,-99.99,,2013-03-30 14:32:00,
2013-03-30 09:42:00,44.0,43.0,30.14,ENE,76,0.0,-999.0,97,-99.99,,,-99.99,,2013-03-30 14:42:00,
2013-03-30 09:52:00,44.0,43.0,30.14,East,91,0.0,-999.0,97,-99.99,,,-99.99,,2013-03-30 14:52:00,
2013-03-30 10:02:00,45.0,44.0,30.13,ESE,117,1.0,-999.0,97,-99.99,,,-99.99,,2013-03-30 15:02:00,
2013-03-30 10:12:00,45.0,44.0,30.13,ESE,117,1.0,-999.0,97,-99.99,,,-99.99,,2013-03-30 15:12:00,
2013-03-30 10:22:00,45.0,44.0,30.11,East,100,5.0,-999.0,97,-99.99,,,-99.99,,2013-03-30 15:22:00,
2013-03-30 10:33:00,46.0,45.0,30.11,East,82,4.0,-999.0,97,-99.99,,,-99.99,,2013-03-30 15:33:00,
2013-03-30 10:43:00,46.0,45.0,30.11,East,82,4.0,-999.0,97,-99.99,,,-99.99,,2013-03-30 15:43:00,
2013-03-30 10:53:00,47.0,46.0,30.11,ENE,66,5.0,-999.0,97,-99.99,,,-99.99,,2013-03-30 15:53:00,
2013-03-30 11:03:00,47.0,46.0,30.11,ENE,64,4.0,-999.0,97,-99.99,,,-99.99,,2013-03-30 16:03:00,
2013-03-30 11:13:00,48.0,47.0,30.11,East,82,1.0,-999.0,97,-99.99,,,-99.99,,2013-03-30 16:13:00,
2013-03-30 11:23:00,48.0,47.0,30.11,East,82,1.0,-999.0,97,-99.99,,,-99.99,,2013-03-30 16:23:00,
2013-03-30 11:33:00,48.0,47.0,30.11,ENE,63,0.0,-999.0,97,-99.99,,,-99.99,,2013-03-30 16:33:00,
2013-03-30 11:43:00,48.0,47.0,30.11,ENE,63,0.0,-999.0,97,-99.99,,,-99.99,,2013-03-30 16:43:00,
2013-03-30 11:52:00,49.0,48.0,30.10,ENE,65,3.0,-999.0,96,-99.99,,,-99.99,,2013-03-30 16:52:00,
2013-03-30 12:02:00,49.0,47.0,30.10,East,94,5.0,-999.0,92,-99.99,,,-99.99,,2013-03-30 17:02:00,
2013-03-30 12:13:00,49.0,47.0,30.10,East,94,5.0,-999.0,92,-99.99,,,-99.99,,2013-03-30 17:13:00,
2013-03-30 12:22:00,50.0,46.0,30.09,East,79,5.0,-999.0,86,-99.99,,,-99.99,,2013-03-30 17:22:00,
2013-03-30 12:32:00,50.0,46.0,30.09,ESE,105,5.0,-999.0,85,-99.99,,,-99.99,,2013-03-30 17:32:00,
2013-03-30 12:42:00,50.0,46.0,30.09,ESE,105,5.0,-999.0,85,-99.99,,,-99.99,,2013-03-30 17:42:00,
2013-03-30 12:52:00,51.0,46.0,30.08,East,98,5.0,-999.0,82,-99.99,,,-99.99,,2013-03-30 17:52:00,
2013-03-30 13:03:00,51.0,45.0,30.07,East,92,6.0,-999.0,81,-99.99,,,-99.99,,2013-03-30 18:03:00,
2013-03-30 13:12:00,51.0,45.0,30.07,ESE,110,5.0,-999.0,80,-99.99,,,-99.99,,2013-03-30 18:12:00,
2013-03-30 13:22:00,51.0,45.0,30.07,ESE,110,5.0,-999.0,80,-99.99,,,-99.99,,2013-03-30 18:22:00,
2013-03-30 13:32:00,51.0,45.0,30.07,ESE,113,5.0,-999.0,80,-99.99,,,-99.99,,2013-03-30 18:32:00,
2013-03-30 13:42:00,51.0,45.0,30.07,ESE,113,5.0,-999.0,80,-99.99,,,-99.99,,2013-03-30 18:42:00,
2013-03-30 13:53:00,51.0,45.0,30.06,ESE,115,6.0,-999.0,80,-99.99,,,-99.99,,2013-03-30 18:53:00,
2013-03-30 14:02:00,51.0,45.0,30.06,SE,134,6.0,-999.0,81,-99.99,,,-99.99,,2013-03-30 19:02:00,
2013-03-30 14:13:00,51.0,45.0,30.06,SE,134,6.0,-999.0,81,-99.99,,,-99.99,,2013-03-30 19:13:00,
2013-03-30 14:22:00,51.0,46.0,30.04,SSE,150,4.0,-999.0,82,-99.99,,,-99.99,,2013-03-30 19:22:00,
2013-03-30 14:32:00,51.0,46.0,30.04,SE,132,5.0,-999.0,82,-99.99,,,-99.99,,2013-03-30 19:32:00,
2013-03-30 14:42:00,51.0,46.0,30.04,SE,132,5.0,-999.0,82,-99.99,,,-99.99,,2013-03-30 19:42:00,
2013-03-30 14:53:00,51.0,46.0,30.02,East,95,5.0,-999.0,84,-99.99,,,-99.99,,2013-03-30 19:53:00,
2013-03-30 15:02:00,51.0,46.0,30.01,ESE,111,5.0,-999.0,84,-99.99,,,-99.99,,2013-03-30 20:02:00,
2013-03-30 15:12:00,51.0,46.0,30.01,ESE,111,5.0,-999.0,84,-99.99,,,-99.99,,2013-03-30 20:12:00,
2013-03-30 15:22:00,51.0,47.0,29.99,ESE,113,7.0,-999.0,85,-99.99,,,-99.99,,2013-03-30 20:22:00,
2013-03-30 15:32:00,51.0,47.0,29.99,ESE,111,6.0,-999.0,86,-99.99,,,-99.99,,2013-03-30 20:32:00,
2013-03-30 15:42:00,51.0,47.0,29.99,ESE,111,6.0,-999.0,86,-99.99,,,-99.99,,2013-03-30 20:42:00,
2013-03-30 15:53:00,51.0,47.0,29.98,ESE,107,6.0,-999.0,87,-99.99,,,-99.99,,2013-03-30 20:53:00,
2013-03-30 16:02:00,52.0,49.0,29.98,ESE,109,5.0,-999.0,88,-99.99,,,-99.99,,2013-03-30 21:02:00,
2013-03-30 16:12:00,52.0,49.0,29.98,ESE,109,5.0,-999.0,88,-99.99,,,-99.99,,2013-03-30 21:12:00,
2013-03-30 16:22:00,52.0,49.0,29.98,ESE,115,5.0,-999.0,88,-99.99,,,-99.99,,2013-03-30 21:22:00,
2013-03-30 16:33:00,52.0,49.0,29.97,ESE,103,3.0,-999.0,89,-99.99,,,-99.99,,2013-03-30 21:33:00,
2013-03-30 16:43:00,52.0,49.0,29.97,ESE,103,3.0,-999.0,89,-99.99,,,-99.99,,2013-03-30 21:43:00,
2013-03-30 16:53:00,52.0,49.0,29.96,East,87,4.0,-999.0,89,-99.99,,,-99.99,,2013-03-30 21:53:00,
2013-03-30 17:03:00,52.0,49.0,29.96,SE,136,3.0,-999.0,90,-99.99,,,-99.99,,2013-03-30 22:03:00,
2013-03-30 17:13:00,52.0,49.0,29.96,SE,136,3.0,-999.0,90,-99.99,,,-99.99,,2013-03-30 22:13:00,
2013-03-30 17:23:00,53.0,50.0,29.95,ESE,118,3.0,-999.0,90,-99.99,,,-99.99,,2013-03-30 22:23:00,
2013-03-30 17:33:00,52.0,49.0,29.95,SE,140,3.0,-999.0,90,-99.99,,,-99.99,,2013-03-30 22:33:00,
2013-03-30 17:43:00,52.0,49.0,29.95,SE,140,3.0,-999.0,90,-99.99,,,-99.99,,2013-03-30 22:43:00,
2013-03-30 17:53:00,53.0,50.0,29.94,SE,130,1.0,-999.0,90,-99.99,,,-99.99,,2013-03-30 22:53:00,
2013-03-30 18:02:00,53.0,50.0,29.93,SSE,155,5.0,-999.0,90,-99.99,,,-99.99,,2013-03-30 23:02:00,
2013-03-30 18:12:00,53.0,50.0,29.93,SSE,155,5.0,-999.0,90,-99.99,,,-99.99,,2013-03-30 23:12:00,
2013-03-30 18:22:00,53.0,50.0,29.93,SE,128,0.0,-999.0,90,-99.99,,,-99.99,,2013-03-30 23:22:00,
2013-03-30 18:32:00,53.0,50.0,29.93,ESE,109,0.0,-999.0,91,-99.99,,,-99.99,,2013-03-30 23:32:00,
2013-03-30 18:42:00,53.0,50.0,29.93,ESE,109,0.0,-999.0,91,-99.99,,,-99.99,,2013-03-30 23:42:00,
2013-03-30 18:53:00,53.0,50.0,29.92,SE,125,1.0,-999.0,90,-99.99,,,-99.99,,2013-03-30 23:53:00,
2013-03-30 19:02:00,53.0,50.0,29.92,ESE,105,0.0,-999.0,91,-99.99,,,-99.99,,2013-03-31 00:02:00,
2013-03-30 19:12:00,53.0,50.0,29.92,ESE,105,0.0,-999.0,91,-99.99,,,-99.99,,2013-03-31 00:12:00,
2013-03-30 19:22:00,53.0,50.0,29.91,ESE,117,0.0,-999.0,91,-99.99,,,-99.99,,2013-03-31 00:22:00,
2013-03-30 19:32:00,53.0,50.0,29.91,ESE,117,0.0,-999.0,91,-99.99,,,-99.99,,2013-03-31 00:32:00,
2013-03-30 19:42:00,53.0,50.0,29.91,ESE,117,0.0,-999.0,91,-99.99,,,-99.99,,2013-03-31 00:42:00,
2013-03-30 19:53:00,53.0,50.0,29.92,ESE,117,0.0,-999.0,91,-99.99,,,-99.99,,2013-03-31 00:53:00,
2013-03-30 20:02:00,53.0,50.0,29.92,ESE,117,0.0,-999.0,91,-99.99,,,-99.99,,2013-03-31 01:02:00,
2013-03-30 20:12:00,53.0,50.0,29.92,ESE,117,0.0,-999.0,91,-99.99,,,-99.99,,2013-03-31 01:12:00,
2013-03-30 20:22:00,53.0,50.0,29.91,ESE,117,0.0,-999.0,91,-99.99,,,-99.99,,2013-03-31 01:22:00,
2013-03-30 20:32:00,53.0,50.0,29.92,ESE,117,0.0,-999.0,91,-99.99,,,-99.99,,2013-03-31 01:32:00,
2013-03-30 20:42:00,53.0,50.0,29.92,ESE,117,0.0,-999.0,91,-99.99,,,-99.99,,2013-03-31 01:42:00,
2013-03-30 20:53:00,53.0,50.0,29.93,ESE,117,0.0,-999.0,91,-99.99,,,-99.99,,2013-03-31 01:53:00,
2013-03-30 21:02:00,53.0,51.0,29.93,ESE,117,0.0,-999.0,92,-99.99,,,-99.99,,2013-03-31 02:02:00,
2013-03-30 21:12:00,53.0,51.0,29.93,ESE,117,0.0,-999.0,92,-99.99,,,-99.99,,2013-03-31 02:12:00,
2013-03-30 21:22:00,53.0,51.0,29.93,ESE,117,0.0,-999.0,92,-99.99,,,-99.99,,2013-03-31 02:22:00,
2013-03-30 21:32:00,53.0,51.0,29.93,ESE,117,0.0,-999.0,92,-99.99,,,-99.99,,2013-03-31 02:32:00,
2013-03-30 21:42:00,53.0,51.0,29.93,ESE,117,0.0,-999.0,92,-99.99,,,-99.99,,2013-03-31 02:42:00,
2013-03-30 21:52:00,53.0,51.0,29.93,ESE,117,0.0,-999.0,92,-99.99,,,-99.99,,2013-03-31 02:52:00,
2013-03-30 22:02:00,53.0,51.0,29.93,ESE,117,0.0,-999.0,92,-99.99,,,-99.99,,2013-03-31 03:02:00,
2013-03-30 22:12:00,53.0,51.0,29.93,ESE,117,0.0,-999.0,92,-99.99,,,-99.99,,2013-03-31 03:12:00,
2013-03-30 22:22:00,53.0,51.0,29.93,ESE,118,0.0,-999.0,93,-99.99,,,-99.99,,2013-03-31 03:22:00,
2013-03-30 22:33:00,53.0,51.0,29.93,ESE,118,0.0,-999.0,93,-99.99,,,-99.99,,2013-03-31 03:33:00,
2013-03-30 22:43:00,53.0,51.0,29.93,ESE,118,0.0,-999.0,93,-99.99,,,-99.99,,2013-03-31 03:43:00,
2013-03-30 22:54:00,53.0,51.0,29.93,ESE,118,0.0,-999.0,94,-99.99,,,-99.99,,2013-03-31 03:54:00,
2013-03-30 23:02:00,53.0,-99.9,29.93,ESE,118,0.0,-999.0,94,-99.99,,,-99.99,,2013-03-31 04:02:00,
2013-03-30 23:13:00,53.0,51.0,29.93,ESE,118,0.0,-999.0,94,-99.99,,,-99.99,,2013-03-31 04:13:00,
2013-03-30 23:23:00,53.0,51.0,29.92,ESE,118,0.0,-999.0,94,-99.99,,,-99.99,,2013-03-31 04:23:00,
2013-03-30 23:32:00,53.0,52.0,29.92,SSW,200,0.0,-999.0,95,-99.99,,,-99.99,,2013-03-31 04:32:00,
2013-03-30 23:42:00,53.0,52.0,29.92,SSW,200,0.0,-999.0,95,-99.99,,,-99.99,,2013-03-31 04:42:00,
2013-03-30 23:52:00,53.0,52.0,29.91,SSW,205,0.0,-999.0,95,-99.99,,,-99.99,,2013-03-31 04:52:00,